EW3206 Weather Reports


Display with metric or nautical units.
time (UTC)temp
F
wind
direction
speed
MPH
gust
MPH
rain 1hr
in
rain 24hr
in
rain mn
in
humidity
%
barometer
mb
20260906214310 62 157 1.0 3.0 0.00 0.00 0.00 72 18.1
20260906213311 63 134 0.0 3.0 0.00 0.00 0.00 71 18.3
20260906212310 63 156 0.0 3.0 0.00 0.00 0.00 71 18.4
20260906211311 63 146 1.0 2.0 0.00 0.00 0.00 71 18.4
20260906204311 63 134 1.0 4.0 0.00 0.00 0.00 70 18.5
20260906203311 63 137 1.0 3.0 0.00 0.00 0.00 70 18.6
20260906201310 63 146 2.0 4.0 0.00 0.00 0.00 70 18.8
20260906195310 64 142 1.0 4.0 0.00 0.00 0.00 70 19.1
20260906194310 64 130 1.0 2.0 0.00 0.00 0.00 70 19.2
20260906193310 64 146 1.0 6.0 0.00 0.00 0.00 70 19.3
20260906192310 64 132 2.0 4.0 0.00 0.00 0.00 69 19.4
20260906191310 64 152 1.0 4.0 0.00 0.00 0.00 70 19.6
20260906185310 65 123 1.0 3.0 0.00 0.00 0.00 69 19.8
20260906184311 66 134 1.0 3.0 0.00 0.00 0.00 68 19.8
20260906183310 66 137 0.0 2.0 0.00 0.00 0.00 67 19.7
20260906182311 67 132 0.0 2.0 0.00 0.00 0.00 65 19.8
20260906181310 68 128 2.0 3.0 0.00 0.00 0.00 65 19.9
20260906175310 69 139 1.0 3.0 0.00 0.00 0.00 61 20.2
20260906174310 70 94 2.0 4.0 0.00 0.00 0.00 59 20.2
20260906173310 71 132 2.0 4.0 0.00 0.00 0.00 59 20.3
20260906172310 72 149 2.0 5.0 0.00 0.00 0.00 56 20.5
20260906165310 73 179 1.0 5.0 0.00 0.00 0.00 57 20.7
20260906164310 73 182 1.0 6.0 0.00 0.00 0.00 57 20.8
20260906163310 73 159 1.0 4.0 0.00 0.00 0.00 55 20.9
20260906162310 73 169 1.0 3.0 0.00 0.00 0.00 55 21.1
20260906161310 73 193 1.0 6.0 0.00 0.00 0.00 54 21.1
20260906153310 74 140 4.0 8.0 0.00 0.00 0.00 52 21.2
20260906152310 74 128 0.0 7.0 0.00 0.00 0.00 51 21.3
20260906151310 75 143 4.0 9.0 0.00 0.00 0.00 51 21.2
20260906145311 74 121 1.0 10.0 0.00 0.00 0.00 51 21.3
20260906143310 73 117 1.0 8.0 0.00 0.00 0.00 52 21.5
20260906142311 73 134 4.0 9.0 0.00 0.00 0.00 52 21.8
20260906141310 73 171 2.0 6.0 0.00 0.00 0.00 54 21.8
20260906135310 72 151 1.0 11.0 0.00 0.00 0.00 54 22.2
20260906134310 72 172 2.0 8.0 0.00 0.00 0.00 55 22.4
20260906133310 72 175 4.0 10.0 0.00 0.00 0.00 57 22.5
20260906132310 72 146 3.0 9.0 0.00 0.00 0.00 54 22.7
20260906131310 72 171 3.0 9.0 0.00 0.00 0.00 56 22.6
20260906125310 72 150 3.0 6.0 0.00 0.00 0.00 54 22.6
20260906124310 72 177 1.0 10.0 0.00 0.00 0.00 54 22.7
20260906122311 72 171 3.0 11.0 0.00 0.00 0.00 53 22.8
20260906121311 72 146 2.0 11.0 0.00 0.00 0.00 58 22.9
20260906115310 69 157 2.0 8.0 0.00 0.00 0.00 59 23.4
20260906114310 69 220 1.0 9.0 0.00 0.00 0.00 58 23.3
20260906113310 69 131 3.0 9.0 0.00 0.00 0.00 57 23.5
20260906112310 69 184 1.0 8.0 0.00 0.00 0.00 57 23.7
20260906111310 69 150 5.0 10.0 0.00 0.00 0.00 57 23.6
20260906104310 68 169 3.0 7.0 0.00 0.00 0.00 61 23.9
20260906103310 67 161 1.0 8.0 0.00 0.00 0.00 63 23.8
20260906102310 67 181 1.0 9.0 0.00 0.00 0.00 64 24.1
20260906101310 66 218 2.0 5.0 0.00 0.00 0.00 64 24.3
20260906095310 65 119 3.0 7.0 0.00 0.00 0.00 68 24.5
20260906094310 64 196 1.0 7.0 0.00 0.00 0.00 71 24.7
20260906093310 64 214 2.0 5.0 0.00 0.00 0.00 69 24.7
20260906092310 64 198 2.0 6.0 0.00 0.00 0.00 70 24.6
20260906091310 64 205 1.0 6.0 0.00 0.00 0.00 71 24.6
20260906085310 63 178 1.0 7.0 0.00 0.00 0.00 74 24.8
20260906084311 62 130 2.0 8.0 0.00 0.00 0.00 79 24.8
20260906083310 62 178 2.0 7.0 0.00 0.00 0.00 79 24.7
20260906081312 61 142 2.0 4.0 0.00 0.00 0.00 85 25.0
20260906074310 57 193 1.0 3.0 0.00 0.00 0.00 91 25.4
20260906073310 56 223 1.0 2.0 0.00 0.00 0.00 92 25.3
20260906072310 56 243 0.0 2.0 0.00 0.00 0.00 93 25.4
20260906071310 55 209 2.0 3.0 0.00 0.00 0.00 93 25.3
20260906065310 53 261 0.0 4.0 0.00 0.00 0.00 93 25.2
20260906064310 53 134 0.0 2.0 0.00 0.00 0.00 93 25.0
20260906063310 52 134 0.0 2.0 0.00 0.00 0.00 93 25.0
20260906062310 51 134 0.0 0.0 0.00 0.00 0.00 93 24.9
20260906061311 51 134 0.0 0.0 0.00 0.00 0.00 92 24.9
20260906055310 50 133 0.0 0.0 0.00 0.00 0.00 91 24.8
20260906054310 50 133 0.0 0.0 0.00 0.00 0.00 91 24.7
20260906053310 50 133 0.0 0.0 0.00 0.00 0.00 91 24.8
20260906051311 50 133 0.0 3.0 0.00 0.00 0.00 91 24.6
20260906045311 50 165 0.0 0.0 0.00 0.00 0.00 91 24.7
20260906044313 50 165 0.0 0.0 0.00 0.00 0.00 91 24.6
20260906043310 50 165 0.0 0.0 0.00 0.00 0.00 90 24.7
20260906042310 50 165 0.0 0.0 0.00 0.00 0.00 91 24.7
20260906041310 50 165 0.0 0.0 0.00 0.00 0.00 90 24.8
20260906035310 50 165 0.0 0.0 0.00 0.00 0.00 90 24.9
20260906034310 51 165 0.0 2.0 0.00 0.00 0.00 90 24.9
20260906033310 51 165 1.0 2.0 0.00 0.00 0.00 90 24.8
20260906032310 51 198 0.0 0.0 0.00 0.00 0.00 90 24.8
20260906031310 51 198 0.0 0.0 0.00 0.00 0.00 91 25.1
20260906025311 51 198 0.0 0.0 0.00 0.00 0.00 90 25.3
20260906024310 51 199 0.0 0.0 0.00 0.00 0.00 90 25.5
20260906023310 51 199 0.0 0.0 0.00 0.00 0.00 90 25.4
20260906022310 51 198 0.0 0.0 0.00 0.00 0.00 90 25.6
20260906021311 52 198 0.0 0.0 0.00 0.00 0.00 90 25.5
20260906015310 52 199 0.0 0.0 0.00 0.00 0.00 89 25.0
20260906014310 52 198 0.0 0.0 0.00 0.00 0.00 89 24.9
20260906013313 52 199 0.0 0.0 0.00 0.00 0.00 89 25.0
20260906005310 52 199 0.0 0.0 0.00 0.00 0.00 88 25.1
20260906004310 52 198 0.0 0.0 0.00 0.00 0.00 88 24.9
20260906003311 52 199 0.0 0.0 0.00 0.00 0.00 89 25.1
20260906001310 53 198 0.0 2.0 0.00 0.00 0.00 88 24.9
20260905235310 53 249 0.0 0.0 0.00 0.00 0.00 88 24.8
20260905234310 53 250 0.0 0.0 0.00 0.00 0.00 88 24.9
20260905233309 53 325 0.0 0.0 0.00 0.00 0.00 89 25.0
20260905232310 53 325 0.0 0.0 0.00 0.00 0.00 88 25.0
20260905231310 53 325 0.0 0.0 0.00 0.00 0.00 87 24.9
20260905225309 54 325 0.0 0.0 0.00 0.00 0.00 87 24.7
20260905224310 54 325 0.0 0.0 0.00 0.00 0.00 88 24.7
20260905223309 54 325 0.0 0.0 0.00 0.00 0.00 87 24.6
20260905222310 54 325 0.0 0.0 0.00 0.00 0.00 87 24.6
20260905221310 54 325 0.0 0.0 0.00 0.00 0.00 85 24.4
20260905220310 54 325 0.0 0.0 0.00 0.00 0.00 86 24.4
20260905215310 54 325 0.0 0.0 0.00 0.00 0.00 86 24.4